www.pogodaiklimat.ru

Погода и климат >> Архив погоды >> Испания >> Сантандер аэропорт


ПОГОДА в Сантандер аэропорту

  • Прогноз погоды в Сантандер аэропорту
  • Монитор погоды в Сантандер аэропорту

АРХИВ ПОГОДЫ в Сантандер аэропорту

Время (UTC), дата Ветер
(напр.,м/с)
 
Видим.   Явления Облачность Т
(С)
Тd
(С)
f
(%)
Тe
(С)
Тes
(С)
Комфортность P
(гПа)
Po
(гПа)
Тmin
(С)
Tmax
(С)
R
(мм)
R24
(мм)
S
(см)
01 9.09 штиль 0 н/о н/о +10.9 +9.8 93 +10 +10 1020.4 1020.2
02 9.09 Ю 1 н/о н/о +11.8 +11.0 95 +12 +12 1019.3 1019.1
03 9.09 Ю 1 н/о н/о +10.9 +10.1 95 +10 +10 1018.6 1018.4
04 9.09 штиль 0 н/о н/о +11.7 +11.2 97 +11 +11 1018.3 1018.1
05 9.09 ЮЗ 1 н/о н/о +11.2 +10.7 97 +11 +11 1018.7 1018.5
06 9.09 Ю 2 30 км 8/3 1000 м
[Sc As trans Cs]
+11.5 +11.0 97 +11 +11 1018.3 1018.1 +10.0
07 9.09 штиль 0 н/о н/о +13.5 +12.9 96 +13 +13 1018.4 1018.2
08 9.09 ЮВ 2 н/о н/о +16.0 +14.0 88 +16 +16 1018.5 1018.3
09 9.09 ЮВ 2 30 км 9/1 1000 м
[Cu hum Ac und Cs]
+18.3 +14.4 78 +19 +23 1018.4 1018.2
10 9.09 В 1 н/о н/о +20.6 +13.3 63 +24 +24 комфорт 1017.9 1017.8
11 9.09 СВ 3 н/о н/о +21.1 +13.3 61 +23 +23 комфорт 1017.4 1017.3
12 9.09 С 3 30 км 10/3 600 м
[Cu hum Ac und Cs]
+21.4 +13.7 61 +24 +28 комфорт 1017.1 1017.0
13 9.09 СЗ 3 н/о н/о +21.4 +13.7 61 +24 +24 комфорт 1017.3 1017.2
14 9.09 З 4 н/о н/о +20.7 +13.0 61 +23 +23 комфорт 1017.1 1017.0
15 9.09 З 5 30 км 9/4 600 м
[Sc Ac und Ci sp]
+20.4 +13.5 65 +23 +24 комфорт 1016.5 1016.4
16 9.09 З 6 н/о н/о +20.6 +14.3 67 +23 +23 комфорт 1016.0 1015.9
17 9.09 З 6 н/о н/о +19.8 +14.4 71 +21 +21 комфорт 1015.7 1015.6
18 9.09 З 5 30 км 9/5 600 м
[St As op Ci sp]
+18.9 +14.0 73 +20 +20 1016.0 1015.8 +21.9
19 9.09 З 6 н/о н/о +18.7 +13.8 73 +19 +19 1015.9 1015.7
21 9.09 СЗ 6 8000 м слаб. дождь 10/8 200 м
[Cu Sc Ac As]
+15.0 +15.0 100 +13 +13 1017.6 1017.4 5
22 9.09 З 5 н/о осадки н/о +15.5 +15.5 100 +14 +14 1017.8 1017.6
23 9.09 З 3 н/о осадки н/о +14.9 +14.7 99 +14 +14 1017.8 1017.6
00 10.09 ЮЗ 4 н/о в посл. час осадки н/о +15.1 +14.1 94 +14 +14 1017.9 1017.7 2
01 10.09 ЮЗ 5 н/о осадки н/о +14.9 +13.3 90 +13 +13 1017.2 1017.0
02 10.09 З 5 н/о осадки н/о +14.8 +12.4 86 +13 +13 1017.5 1017.3
03 10.09 ЮЗ 7 н/о осадки н/о +14.0 +11.9 87 +12 +12 1017.0 1016.8 7
04 10.09 ЮЗ 5 н/о осадки н/о +13.5 +11.9 90 +11 +11 1016.6 1016.4
05 10.09 СЗ 6 н/о осадки н/о +15.1 +12.4 84 +14 +14 1016.6 1016.4
06 10.09 З 6 15 км {ливн. осадки, дождь} 10/3 600 м
[Cu med, cong Ac As Cs]
+14.2 +11.7 85 +12 +12 1017.0 1016.8 +12.4 4
07 10.09 СЗ 6 н/о осадки н/о +15.6 +13.6 88 +14 +14 1017.2 1017.0
08 10.09 З 5 н/о осадки н/о +14.7 +12.9 89 +13 +13 1017.9 1017.7
09 10.09 З 5 6000 м слаб. ливневой дождь {гроза} 9/4 600 м
[Cb cap Ac As Ci fib]
+16.3 +14.7 90 +15 +16 1017.9 1017.7 3
10 10.09 С 5 н/о осадки н/о +16.2 +14.7 91 +15 +15 1018.2 1018.0
11 10.09 С 4 н/о осадки н/о +14.6 +14.0 96 +13 +13 1019.4 1019.2
12 10.09 С 9 3000 м ливневой дождь 10/8 480 м
[Cb cap Ac As Cs]
+15.5 +15.2 98 +13 +14 1019.5 1019.3 10
13 10.09 СЗ 7 н/о в посл. час осадки н/о +17.7 +14.0 79 +17 +17 1019.8 1019.6
14 10.09 СЗ 7 н/о осадки н/о +18.4 +14.3 77 +18 +18 1020.0 1019.8
15 10.09 СЗ 8 20 км 9/9 600 м
[Cu med, cong]
+19.4 +15.3 77 +20 +21 1020.4 1020.2 0.0
16 10.09 СЗ 7 н/о н/о +20.2 +13.7 66 +22 +22 комфорт 1021.0 1020.8
17 10.09 С 7 н/о н/о +19.3 +13.3 68 +20 +20 1021.8 1021.6
18 10.09 СЗ 6 н/о н/о +18.9 +13.5 71 +19 +19 1022.4 1022.2 +20.3
19 10.09 СЗ 5 н/о осадки н/о +17.6 +14.5 82 +17 +17 1023.2 1023.0
20 10.09 С 5 н/о в посл. час осадки н/о +18.2 +14.1 77 +18 +18 1024.2 1024.0
21 10.09 С 4 15 км 5/5 600 м
[Cu med, cong]
+18.3 +14.2 77 +19 +19 1024.9 1024.7 0.2
22 10.09 С 4 н/о н/о +17.9 +13.4 75 +18 +18 1024.9 1024.7
23 10.09 С 4 н/о н/о +18.0 +13.3 74 +18 +18 1025.1 1024.9
00 11.09 С 4 н/о н/о +18.0 +13.3 74 +18 +18 1025.3 1025.1
01 11.09 С 5 н/о н/о +18.3 +13.7 75 +18 +18 1025.6 1025.4
02 11.09 С 4 н/о н/о +18.2 +14.0 76 +18 +18 1025.6 1025.4
03 11.09 СЗ 3 н/о н/о +18.2 +13.9 76 +19 +19 1025.7 1025.5
04 11.09 С 3 н/о н/о +18.0 +13.9 77 +18 +18 1025.9 1025.7
05 11.09 С 2 н/о н/о +17.7 +13.6 77 +18 +18 1026.3 1026.1
06 11.09 СЗ 3 20 км 8/6 1000 м
[Cu Sc Ac As Ci fib]
+18.0 +13.9 77 +18 +18 1026.9 1026.7 +17.4
07 11.09 З 2 н/о н/о +17.3 +14.6 84 +18 +18 1027.8 1027.6
08 11.09 СЗ 4 н/о н/о +19.0 +14.4 75 +20 +20 1028.5 1028.3
09 11.09 С 4 30 км 6/3 600 м
[Cu hum Cs]
+20.7 +14.7 68 +24 +26 комфорт 1028.7 1028.5
10 11.09 С 4 н/о н/о +20.6 +14.6 68 +24 +24 комфорт 1029.1 1028.9
11 11.09 СЗ 3 н/о н/о +20.6 +15.5 73 +24 +24 комфорт 1029.3 1029.1
12 11.09 СЗ 5 30 км 9/8 600 м
[Cu Sc Ci fib]
+20.0 +15.7 76 +22 +23 комфорт 1029.4 1029.2
13 11.09 С 4 н/о н/о +20.2 +15.2 73 +23 +23 комфорт 1029.3 1029.1
14 11.09 СЗ 4 н/о н/о +20.6 +15.2 71 +24 +24 комфорт 1029.2 1029.0
15 11.09 С 4 40 км 6/5 600 м
[Cu med, cong Ci fib]
+20.8 +14.8 69 +24 +27 комфорт 1029.4 1029.2
16 11.09 С 3 н/о н/о +21.4 +15.2 68 +25 +25 комфорт 1029.3 1029.1
17 11.09 С 3 н/о н/о +20.8 +15.6 72 +24 +24 комфорт 1029.4 1029.2
18 11.09 С 3 35 км 5/4 600 м
[Cu med, cong Ci fib]
+19.9 +15.7 77 +23 +23 комфорт 1029.4 1029.2 +21.7
19 11.09 С 3 н/о н/о +18.6 +15.1 80 +20 +20 1029.9 1029.7
20 11.09 ЮЗ 1 н/о н/о +17.9 +15.3 85 +19 +19 1030.6 1030.4
21 11.09 ЮЗ 2 20 км 6/6 300 м
[Cu Sc]
+17.9 +15.7 87 +18 +18 1030.9 1030.7
22 11.09 Ю 2 н/о н/о +17.3 +15.1 87 +18 +18 1031.1 1030.9
23 11.09 ЮЗ 2 н/о н/о +16.6 +14.8 89 +17 +17 1030.9 1030.7
00 12.09 В 1 н/о н/о +15.8 +14.5 92 +16 +16 1031.0 1030.8
01 12.09 ЮВ 1 н/о н/о +15.2 +14.4 95 +16 +16 1030.8 1030.6
02 12.09 штиль 0 н/о н/о +14.3 +13.5 95 +14 +14 1030.5 1030.3
03 12.09 ЮВ 2 н/о н/о +13.8 +13.3 97 +13 +13 1030.3 1030.1
04 12.09 ЮВ 1 н/о н/о +13.6 +13.1 97 +14 +14 1030.4 1030.2
05 12.09 штиль 0 н/о н/о +12.7 +12.5 99 +12 +12 1030.5 1030.3
06 12.09 Ю 2 20 км 1/0
[Ci fib]
+11.8 +11.5 98 +11 +11 1030.7 1030.5 +11.6
07 12.09 ЮВ 1 н/о н/о +14.9 +14.6 98 +15 +15 1031.1 1030.9
08 12.09 Ю 1 н/о н/о +18.0 +15.6 86 +19 +19 1031.1 1030.9
09 12.09 В 5 30 км 1/0
[Ac lent]
+20.9 +15.8 73 +24 +27 комфорт 1031.4 1031.2
10 12.09 В 6 н/о н/о +22.3 +16.0 68 +26 +26 жарко 1031.4 1031.2
11 12.09 СВ 7 н/о н/о +22.2 +16.6 71 +27 +27 душно 1031.4 1031.2
12 12.09 СВ 7 30 км ясно +21.8 +16.8 73 +26 +29 душно 1031.1 1030.9
13 12.09 СВ 7 н/о н/о +21.6 +17.2 76 +26 +26 душно 1030.8 1030.6
14 12.09 СВ 7 н/о н/о +22.6 +16.2 67 +27 +27 душно 1030.2 1030.0
15 12.09 СВ 7 35 км ясно +22.0 +17.2 74 +26 +28 душно 1029.6 1029.4
16 12.09 СВ 7 н/о н/о +22.1 +16.1 69 +26 +26 душно 1029.6 1029.4
17 12.09 СВ 6 н/о н/о +21.1 +16.2 74 +24 +24 комфорт 1030.0 1029.8
18 12.09 СВ 6 20 км ясно +20.1 +16.3 79 +23 +23 комфорт 1030.1 1029.9 +22.9
19 12.09 СВ 4 н/о н/о +19.0 +16.0 83 +20 +20 1030.3 1030.1
20 12.09 СВ 4 н/о н/о +18.5 +15.9 85 +19 +19 1030.6 1030.4
21 12.09 В 2 20 км ясно +17.1 +15.3 89 +17 +17 1030.7 1030.5
22 12.09 штиль 0 н/о н/о +15.9 +14.9 94 +16 +16 1030.8 1030.6
23 12.09 ЮВ 1 н/о н/о +14.3 +13.5 95 +15 +15 1030.5 1030.3
00 13.09 Ю 1 н/о н/о +14.0 +13.4 96 +15 +15 1030.5 1030.3
01 13.09 Ю 1 н/о н/о +13.9 +13.4 97 +14 +14 1030.1 1029.9
02 13.09 Ю 1 н/о н/о +13.0 +12.5 97 +13 +13 1030.3 1030.1
03 13.09 ЮВ 1 н/о н/о +13.0 +12.7 98 +13 +13 1030.1 1029.9
04 13.09 З 1 н/о н/о +12.4 +12.2 99 +12 +12 1029.7 1029.5
05 13.09 штиль 0 н/о н/о +12.5 +12.5 100 +12 +12 1029.9 1029.7
06 13.09 штиль 0 12 км 1/1 300 м
[St]
+12.2 +12.2 100 +11 +11 1029.9 1029.7 +11.6
07 13.09 штиль 0 н/о н/о +14.5 +14.5 100 +14 +14 1029.8 1029.6
08 13.09 Ю 1 н/о н/о +17.8 +17.0 95 +19 +19 1030.0 1029.8
09 13.09 С 1 15 км 8/8 300 м
[St Ci fib]
+20.7 +16.9 79 +26 +27 душно 1029.7 1029.5
10 13.09 СВ 2 н/о н/о +22.4 +18.0 76 +27 +27 душно 1029.7 1029.5
11 13.09 СВ 3 н/о н/о +23.0 +18.9 78 +29 +29 очень
душно
1029.7 1029.6
12 13.09 СВ 4 20 км 1/1 300 м
[St Ci fib]
+23.5 +19.2 77 +28 +37 душно 1028.6 1028.5
13 13.09 СВ 3 н/о н/о +23.5 +19.2 77 +28 +28 душно 1028.3 1028.2
14 13.09 СВ 5 н/о н/о +23.5 +19.6 79 +29 +29 душно 1028.2 1028.1
15 13.09 СВ 4 30 км 4/1 300 м
[Sc Cs]
+23.3 +19.4 79 +30 +34 очень
душно
1027.7 1027.6
16 13.09 СВ 3 н/о н/о +22.6 +19.4 82 +29 +29 очень
душно
1027.5 1027.4
17 13.09 СВ 3 н/о н/о +21.6 +19.2 86 +27 +27 душно 1027.4 1027.2
18 13.09 СВ 3 20 км 9/1 300 м
[Sc Cs]
+20.9 +19.0 89 +26 +26 душно 1027.3 1027.1 +23.9
19 13.09 СВ 3 н/о н/о +20.4 +19.1 92 +25 +25 комфорт 1027.3 1027.1
20 13.09 В 2 н/о н/о +19.6 +18.3 92 +23 +23 комфорт 1027.7 1027.5
21 13.09 В 1 15 км 5/1 300 м
[Sc Ac trans Cs]
+18.6 +17.6 94 +21 +21 комфорт 1027.5 1027.3
22 13.09 В 2 н/о н/о +18.6 +17.9 96 +20 +20 1027.3 1027.1
23 13.09 ЮВ 1 н/о н/о +17.7 +17.2 97 +19 +19 1027.3 1027.1
00 14.09 Ю 1 н/о н/о +16.6 +16.3 98 +17 +17 1026.8 1026.6
01 14.09 В 1 н/о н/о +16.8 +16.6 99 +18 +18 1026.3 1026.1
02 14.09 штиль 0 н/о н/о +15.2 +15.0 99 +15 +15 1025.6 1025.4
03 14.09 Ю 2 н/о н/о +15.3 +15.1 99 +15 +15 1025.3 1025.1
04 14.09 В 1 н/о н/о +15.4 +15.4 100 +16 +16 1025.1 1024.9
05 14.09 штиль 0 н/о н/о +16.3 +16.3 100 +16 +16 1024.8 1024.6
06 14.09 Ю 1 5000 м дымка 10/3
[St As op]
+16.7 +16.7 100 +17 +17 1025.3 1025.1 +15.1
07 14.09 ЮЗ 2 н/о в посл. час осадки н/о +18.4 +18.4 100 +20 +20 1025.2 1025.0
08 14.09 штиль 0 н/о в посл. час осадки н/о +21.1 +20.3 95 +26 +26 душно 1025.4 1025.2
09 14.09 СВ 3 9000 м 4/1 200 м
[St Ac As Ci sp]
+21.8 +19.0 84 +27 +31 душно 1025.5 1025.4 0.0
10 14.09 СВ 1 н/о н/о +23.5 +18.4 73 +28 +28 душно 1025.2 1025.1
11 14.09 СВ 2 н/о н/о +26.2 +19.4 66 +32 +32 очень
душно
1024.6 1024.5
12 14.09 СЗ 3 15 км 3/0
[Cs]
+25.3 +20.5 75 +31 +41 очень
душно
1024.2 1024.1
13 14.09 СЗ 4 н/о н/о +24.6 +20.0 76 +30 +30 очень
душно
1024.0 1023.9
14 14.09 СВ 4 н/о н/о +24.9 +18.4 67 +29 +29 душно 1023.4 1023.3
15 14.09 В 4 12 км 1/0
[Ci fib]
+24.7 +20.2 76 +30 +36 очень
душно
1022.9 1022.8
16 14.09 С 4 н/о н/о +24.1 +20.6 81 +30 +30 очень
душно
1022.7 1022.6
17 14.09 СВ 4 н/о н/о +23.7 +19.6 78 +29 +29 душно 1022.8 1022.7
18 14.09 СВ 3 12 км 8/0
[Ac trans Cs]
+22.2 +19.7 86 +28 +28 душно 1022.7 1022.6 +26.2
19 14.09 В 2 н/о н/о +21.4 +19.0 86 +26 +26 душно 1023.2 1023.1
20 14.09 штиль 0 н/о н/о +20.2 +18.6 91 +23 +23 комфорт 1023.4 1023.2
21 14.09 З 1 10 км 8/0
[Cs]
+19.1 +17.9 93 +22 +22 комфорт 1023.3 1023.1
22 14.09 штиль 0 н/о н/о +19.2 +18.4 95 +21 +21 комфорт 1023.4 1023.2
23 14.09 штиль 0 н/о н/о +18.5 +17.8 96 +19 +19 1023.4 1023.2
00 15.09 ЮЗ 1 н/о н/о +18.3 +17.8 97 +20 +20 1023.1 1022.9
01 15.09 штиль 0 н/о н/о +17.3 +16.8 97 +17 +17 1022.7 1022.5
02 15.09 ЮВ 1 н/о н/о +17.5 +17.3 99 +19 +19 1022.2 1022.0
03 15.09 ЮВ 1 н/о н/о +17.2 +17.0 99 +18 +18 1021.8 1021.6
04 15.09 штиль 0 н/о н/о +17.1 +16.9 99 +17 +17 1021.7 1021.5
05 15.09 ЮЗ 2 н/о н/о +17.2 +17.2 100 +18 +18 1021.8 1021.6
06 15.09 З 2 н/о {туман} н/о +17.7 +17.7 100 +18 +18 1021.9 1021.7 +16.6
07 15.09 ЮЗ 1 н/о н/о +18.9 +18.9 100 +22 +22 комфорт 1022.1 1021.9
08 15.09 Ю 2 н/о н/о +18.8 +18.8 100 +21 +21 комфорт 1022.5 1022.3
09 15.09 З 2 2000 м дымка {туман} 8/4 50 м
[St Ac As Ci sp]
+19.5 +19.5 100 +23 +25 комфорт 1022.7 1022.5
10 15.09 З 2 н/о н/о +20.7 +20.0 96 +26 +26 душно 1022.4 1022.3
11 15.09 З 2 н/о н/о +22.1 +19.8 87 +28 +28 душно 1021.9 1021.8
12 15.09 В 3 8000 м дымка 8/0
[Ac cast Ci sp]
+23.8 +20.5 82 +30 +37 очень
душно
1021.3 1021.2
13 15.09 СВ 3 н/о н/о +24.5 +20.3 77 +30 +30 очень
душно
1021.1 1021.0
14 15.09 СВ 3 н/о н/о +24.0 +19.7 77 +29 +29 душно 1021.0 1020.9
15 15.09 СВ 3 7000 м дымка 9/0
[Ac trans Cs]
+23.2 +20.3 84 +30 +34 очень
душно
1020.5 1020.4
17 15.09 штиль 0 н/о н/о +23.3 +19.7 80 +30 +30 очень
душно
1019.8 1019.7
18 15.09 З 3 8000 м дымка 9/0
[Ac As Cs]
+22.5 +20.0 86 +29 +29 очень
душно
1019.5 1019.4 +24.8
19 15.09 З 2 н/о н/о +21.4 +20.0 92 +27 +27 душно 1019.7 1019.6
20 15.09 С 2 н/о н/о +21.7 +20.5 93 +27 +27 душно 1020.1 1020.0
21 15.09 СВ 1 9000 м в посл. час дождь 9/0 2000 м
[Ac As Cs]
+20.8 +19.8 94 +27 +27 душно 1020.6 1020.5 0.2
22 15.09 ЮЗ 1 н/о в посл. час осадки н/о +20.4 +19.6 95 +26 +26 душно 1020.6 1020.5
23 15.09 СЗ 2 н/о осадки н/о +20.4 +19.9 97 +25 +25 комфорт 1020.3 1020.2

 

Местоположение метеостанции Сантандер аэропорт (Испания): широта 43.43 долгота -3.82 высота над уровнем моря 6 м.

В архиве по умолчанию представлена погода в Сантандер аэропорту за последнюю неделю. Архивные данные за месяц целиком и за предыдущие месяцы, начиная с января 2011 года, Вы можете получить, выбрав интересующий диапазон дат из раскрывающегося списка и нажав кнопку "Ввод!".


*Определитесь, кто Вы:
робот инопланетянин человек

Внимание! Время в таблицах - всемирное. Для получения местного времени необходимо прибавить поправку, которая равна 1 ч.

Смотрите также архив погоды в соседних городах и на ближайших метеорологических станциях:

Погода в Сантандере (Испания) (6 км)
Погода на Мысе Сан-Висенте (Испания) (46 км)
Погода в Кастро-Урдьялесе (Испания) (48 км)
Погода в Нестаресе (Испания) (56 км)
Погода в Медина-де-Помаре (Испания) (63 км)
Погода в Гуэньесе (Испания) (64 км)
Погода в Пунта Галеа (Испания) (65 км)
Погода в Полиентес-Касисе (Испания) (70 км)
Погода в Бильбао (Испания) (73 км)
Погода в Льянесе (Испания) (75 км)

Пояснения к столбцам:

Ветер - указаны скорость ветра в м/с - средняя за 10 мин, порывы в срок и между сроками (в фигурных скобках) и направление, откуда дует ветер: С - северный, СВ - северо-восточный, В - восточный, ЮВ - юго-восточный, Ю - южный, ЮЗ - юго-западный, З - западный, СЗ - северо-западный.
Видимость - горизонтальная дальность видимости в метрах или километрах. При видимости от 1 до 10 км при отсутствии осадков обычно наблюдается дымка, при ухудшении видимости до 1 км и менее - туман. В сухую погоду видимость может ухудшаться дымом, пылью или мглою.
Явления - указаны атмосферные явления, наблюдавшиеся в срок или в последний час перед сроком; фигурными скобками обозначены явления, наблюдавшиеся между сроками (за 1-3 часа до срока); квадратными скобками обозначены град или гололедные отложения с указанием их диаметра в мм.
Облачность - указаны через наклонную черту общая и нижняя облачность в баллах и высота нижней границы облаков в метрах; квадратными скобками обозначены формы облаков: Ci - перистые, Cs - перисто-слоистые, Cc - перисто-кучевые, Ac - высококучевые, As - высокослоистые, Sc - слоисто-кучевые, Ns - слоисто-дождевые, Cu - кучевые, Cb - кучево-дождевые. Подробнее классификацию облаков см. в Атласе облаков (PDF).
T - Температура воздуха - температура, измеренная на высоте 2 м над землей.
Td - Температура точки росы - температура, при понижении до которой содержащийся в воздухе водяной пар достигнет насыщения.
f - Относительная влажность воздуха - влажноcть воздуха, измеренная на высоте 2 м над землей.
Te - Эффективная температура - температура, которую ощущает одетый по сезону человек в тени. Характеристика душности погоды. При расчете учитывается влияние влажности воздуха и скорости ветра на теплоощущения человека.
Tes - Эффективная температура на солнце - температура, которую ощущает человек, с поправкой на солнечный нагрев. Характеристика знойности погоды. Зависит от высоты солнца над горизонтом, облачности и скорости ветра. Ночью, в пасмурную погоду, а также при ветре 12 м/с и более поправка равна нулю.
P - Атмосферное давление - приведенное к уровню моря атмосферное давление.
Po - Атмосферное давление - измеренное на уровне метеостанции атмосферное давление.
Tmin - Минимальная температура - минимум температуры воздуха на высоте 2 м над землей.
Tmax - Максимальная температура - максимум температуры воздуха на высоте 2 м над землей.
R - Количество осадков - Количество выпавших осадков за период времени, мм. При наведении курсора мыши на число - период времени, за который выпало указанное количество осадков.
R24 - Количество осадков - Количество выпавших осадков за 24 часа, мм.
S - Снежный покров - Высота снежного покрова, см. При наведении курсора мыши на число - состояние снежного покрова и степень покрытия местности в баллах.